Simultaneous Nadir Overpasses (SNOs) Predictions

Prediction of SNOs between AQUA and NOAA-19 Satellite Orbit:

Table of predicted SNOs for the next 14.0 days since TLE Epoch: 4/17/2021
Index Date (AQUA) Time (AQUA) Lat,Lon (AQUA) SZA (AQUA ) Date (NOAA-19) Time (NOAA-19) Lat,Lon (NOAA-19) SZA (NOAA-19 ) Distance(km) Time Diff (sec)
1 04/18/2021 19:39:46 -78.95, 41.64 111.28 04/18/2021 19:38:57 -78.94, 41.53 111.27 3.31 49
2 04/18/2021 20:29:14 78.99,-150.91 68.75 04/18/2021 20:29:53 78.99,-150.82 68.73 1.96 39
3 04/21/2021 02:02:57 -78.98, -54.29 112.04 04/21/2021 02:03:07 -78.98, -54.12 112.05 3.55 10
4 04/23/2021 07:36:40 78.93, 42.58 67.14 04/23/2021 07:36:17 78.95, 42.52 67.18 3.44 23
5 04/23/2021 08:26:07 -78.96,-150.00 112.82 04/23/2021 08:27:18 -78.98,-150.04 112.83 2.00 71
6 04/25/2021 13:10:23 -78.92, 139.21 113.61 04/25/2021 13:09:30 -78.94, 139.17 113.57 2.57 53
7 04/25/2021 13:59:51 78.96, -53.42 66.44 04/25/2021 14:00:29 78.94, -53.53 66.42 3.20 38
8 04/27/2021 19:33:34 -78.95, 43.21 114.29 04/27/2021 19:33:41 -78.94, 43.23 114.31 1.25 7
9 04/30/2021 01:07:17 78.92, 139.94 64.98 04/30/2021 01:06:52 78.93, 139.98 64.99 1.62 25



Historial Predications of SNOs between AQUA and NOAA-19
